Location: Oracle State Park
(32.6095°N, 110.7330°W)
Time: 23:41:27
(UTC-07:00)

Envisat - Visible Passes

Search period start: 19 October 2019 00:00
Search period end: 29 October 2019 00:00
Orbit: 764 x 766 km, 98.1° (Epoch: 19 October)

Date Brightness Start Highest point End Pass type
(mag) Time Alt. Az. Time Alt. Az. Time Alt. Az.
19 Oct 5.2 19:26:10 10° SSW 19:30:23 26° W 19:34:37 10° NW visible
20 Oct 6.4 06:01:59 10° ENE 06:04:27 14° E 06:06:55 10° ESE visible
20 Oct 3.4 18:48:30 10° S 18:53:31 65° W 18:58:33 10° NNW visible
21 Oct 3.1 18:11:55 10° SSE 18:16:49 51° ENE 18:21:43 10° N visible
21 Oct 6.0 19:53:29 10° SW 19:56:03 14° W 19:58:39 10° WNW visible
22 Oct 4.7 19:14:30 10° SSW 19:19:03 34° W 19:23:40 10° NNW visible
23 Oct 3.0 18:37:11 10° SSE 18:42:14 85° WSW 18:47:20 10° NNW visible
24 Oct 3.4 18:00:55 10° SE 18:05:37 40° ENE 18:10:19 10° N visible
24 Oct 5.7 19:41:15 10° SW 19:44:42 18° W 19:48:11 10° NW visible
25 Oct 4.2 19:02:57 10° S 19:07:46 44° W 19:12:37 10° NNW visible
26 Oct 2.9 18:25:57 10° SSE 18:31:00 75° ENE 18:36:04 10° N visible
27 Oct 5.3 19:29:20 10° SSW 19:33:22 24° W 19:37:26 10° NW visible
28 Oct 6.2 06:04:35 10° ENE 06:07:28 15° E 06:10:20 10° SE visible
28 Oct 3.6 18:51:30 10° S 18:56:28 58° W 19:01:29 10° NNW visible
